CW8310 Weather Reports


time (UTC)temp
F
wind
direction
speed
knots
gust
knots
rain 1hr
in
rain 24hr
in
rain mn
in
humidity
%
barometer
mb
20260504214506 68 0.0 0.0 0.00 0.00 0.00 48 1011.4
20260504214004 69 0.0 0.0 0.00 0.00 0.00 47 1011.4
20260504213505 69 0.0 0.0 0.00 0.00 0.00 48 1011.4
20260504213014 69 0.0 0.0 0.00 0.00 0.00 49 1011.5
20260504212509 69 0.0 0.0 0.00 0.00 0.00 50 1011.4
20260504212009 69 0.0 0.0 0.00 0.00 0.00 49 1011.4
20260504211516 69 0.0 0.0 0.00 0.00 0.00 49 1011.4
20260504211004 69 0.0 0.0 0.00 0.00 0.00 48 1011.4
20260504210507 69 0.0 0.0 0.00 0.00 0.00 49 1011.3
20260504210022 70 0.0 0.0 0.00 0.00 0.00 48 1011.4
20260504205510 70 0.0 0.0 0.00 0.00 0.00 48 1011.3
20260504205010 70 0.0 0.0 0.00 0.00 0.00 47 1011.3
20260504204518 70 0.0 0.0 0.00 0.00 0.00 46 1011.4
20260504204011 70 0.0 0.0 0.00 0.00 0.00 47 1011.3
20260504203503 70 0.0 0.0 0.00 0.00 0.00 46 1011.3
20260504203019 70 0.0 0.0 0.00 0.00 0.00 48 1011.3
20260504202513 71 0.0 0.0 0.00 0.00 0.00 46 1011.4
20260504202006 73 0.0 0.0 0.00 0.00 0.00 33 1011.3
20260504201511 74 0.0 0.0 0.00 0.00 0.00 33 1011.2
20260504201007 73 0.0 0.0 0.00 0.00 0.00 34 1011.3
20260504200511 73 0.0 0.0 0.00 0.00 0.00 35 1011.3
20260504200021 73 0.0 0.0 0.00 0.00 0.00 36 1011.2
20260504195507 74 0.0 0.0 0.00 0.00 0.00 35 1011.4
20260504195007 73 0.0 0.0 0.00 0.00 0.00 35 1011.4
20260504194536 73 0.0 0.0 0.00 0.00 0.00 34 1011.4
20260504194006 73 0.0 0.0 0.00 0.00 0.00 34 1011.5
20260504193510 74 0.0 0.0 0.00 0.00 0.00 34 1011.5
20260504193023 74 0.0 0.0 0.00 0.00 0.00 33 1011.5
20260504192509 73 0.0 0.0 0.00 0.00 0.00 34 1011.5
20260504192004 73 0.0 0.0 0.00 0.00 0.00 33 1011.7
20260504191511 73 0.0 0.0 0.00 0.00 0.00 34 1011.9
20260504191009 73 0.0 0.0 0.00 0.00 0.00 37 1011.9
20260504190505 72 0.0 0.0 0.00 0.00 0.00 34 1012.0
20260504190017 72 0.0 0.0 0.00 0.00 0.00 34 1012.2
20260504185509 73 0.0 0.0 0.00 0.00 0.00 34 1012.3
20260504185008 72 0.0 0.0 0.00 0.00 0.00 34 1012.3
20260504184514 72 0.0 0.0 0.00 0.00 0.00 33 1012.4
20260504184008 74 0.0 0.0 0.00 0.00 0.00 32 1012.4
20260504183509 73 0.0 0.0 0.00 0.00 0.00 38 1012.4
20260504183026 72 0.0 0.0 0.00 0.00 0.00 35 1012.6
20260504182509 72 0.0 0.0 0.00 0.00 0.00 35 1012.7
20260504182011 72 0.0 0.0 0.00 0.00 0.00 35 1012.7
20260504181526 72 0.0 0.0 0.00 0.00 0.00 37 1012.8
20260504181010 72 0.0 0.0 0.00 0.00 0.00 36 1012.9
20260504180504 72 0.0 0.0 0.00 0.00 0.00 37 1013.1
20260504180019 72 0.0 0.0 0.00 0.00 0.00 35 1013.1
20260504175507 72 0.0 0.0 0.00 0.00 0.00 35 1013.1
20260504175008 71 0.0 0.0 0.00 0.00 0.00 39 1013.1
20260504174522 71 0.0 0.0 0.00 0.00 0.00 36 1013.2
20260504174007 72 0.0 0.0 0.00 0.00 0.00 37 1013.4
20260504173510 72 0.0 0.0 0.00 0.00 0.00 39 1013.3
20260504173021 72 0.0 0.0 0.00 0.00 0.00 37 1013.4
20260504172510 71 0.0 0.0 0.00 0.00 0.00 38 1013.4
20260504172009 71 0.0 0.0 0.00 0.00 0.00 36 1013.5
20260504171518 71 0.0 0.0 0.00 0.00 0.00 39 1013.6
20260504171014 70 0.0 0.0 0.00 0.00 0.00 41 1013.6
20260504170508 70 0.0 0.0 0.00 0.00 0.00 39 1013.8
20260504151003 66 0.0 0.0 0.00 0.00 0.00 49 1014.9
20260504150504 66 0.0 0.0 0.00 0.00 0.00 46 1015.0
20260504141009 64 0.0 0.0 0.00 0.00 0.00 44 1015.3
20260504140507 64 0.0 0.0 0.00 0.00 0.00 44 1015.3
20260504130508 59 0.0 0.0 0.00 0.00 0.00 58 1015.8
20260504110508 48 0.0 0.0 0.00 0.00 0.00 77 1016.7
20260504100505 47 0.0 0.0 0.00 0.00 0.00 74 1016.5
20260504082008 47 0.0 0.0 0.00 0.00 0.00 68 1016.4
20260504081525 47 0.0 0.0 0.00 0.00 0.00 69 1016.4
20260504081011 47 0.0 0.0 0.00 0.00 0.00 67 1016.3
20260504080509 47 0.0 0.0 0.00 0.00 0.00 67 1016.2
20260504050506 46 0.0 0.0 0.00 0.00 0.00 66 1015.6
20260504050005 46 0.0 0.0 0.00 0.00 0.00 64 1015.6
20260504045503 46 0.0 0.0 0.00 0.00 0.00 66 1015.6
20260504045003 46 0.0 0.0 0.00 0.00 0.00 67 1015.5
20260504044505 46 0.0 0.0 0.00 0.00 0.00 65 1015.5
20260504044005 46 0.0 0.0 0.00 0.00 0.00 65 1015.5
20260504043504 46 0.0 0.0 0.00 0.00 0.00 65 1015.4
20260504043010 46 0.0 0.0 0.00 0.00 0.00 64 1015.4
20260504042508 47 0.0 0.0 0.00 0.00 0.00 64 1015.4
20260504042003 47 0.0 0.0 0.00 0.00 0.00 64 1015.4
20260504041508 47 0.0 0.0 0.00 0.00 0.00 63 1015.4
20260504041008 47 0.0 0.0 0.00 0.00 0.00 62 1015.3
20260504040508 47 0.0 0.0 0.00 0.00 0.00 62 1015.4
20260504040008 48 0.0 0.0 0.00 0.00 0.00 62 1015.3
20260504035504 48 0.0 0.0 0.00 0.00 0.00 64 1015.2
20260504035004 48 0.0 0.0 0.00 0.00 0.00 64 1015.1
20260504034504 48 0.0 0.0 0.00 0.00 0.00 64 1015.1
20260504034004 48 0.0 0.0 0.00 0.00 0.00 62 1015.1
20260504033503 48 0.0 0.0 0.00 0.00 0.00 61 1015.1
20260504033009 48 0.0 0.0 0.00 0.00 0.00 63 1015.1
20260504032506 48 0.0 0.0 0.00 0.00 0.00 63 1015.1
20260504032005 49 0.0 0.0 0.00 0.00 0.00 61 1015.1
20260504031513 49 0.0 0.0 0.00 0.00 0.00 62 1015.1
20260504031007 49 0.0 0.0 0.00 0.00 0.00 59 1015.1
20260504030506 49 0.0 0.0 0.00 0.00 0.00 59 1015.0
20260504030012 49 0.0 0.0 0.00 0.00 0.00 55 1015.0
20260504025508 50 0.0 0.0 0.00 0.00 0.00 56 1015.0
20260504025004 50 0.0 0.0 0.00 0.00 0.00 54 1015.0
20260504024509 50 0.0 0.0 0.00 0.00 0.00 53 1014.9
20260504024004 50 0.0 0.0 0.00 0.00 0.00 54 1014.9
20260504023504 50 0.0 0.0 0.00 0.00 0.00 54 1014.9
20260504023006 50 0.0 0.0 0.00 0.00 0.00 54 1014.9
20260504022504 50 0.0 0.0 0.00 0.00 0.00 55 1014.9
20260504022006 50 0.0 0.0 0.00 0.00 0.00 55 1014.9
20260504021510 50 0.0 0.0 0.00 0.00 0.00 55 1014.9
20260504021005 50 0.0 0.0 0.00 0.00 0.00 55 1014.9
20260504020506 50 0.0 0.0 0.00 0.00 0.00 55 1015.0
20260504020012 50 0.0 0.0 0.00 0.00 0.00 55 1014.9
20260504015504 50 0.0 0.0 0.00 0.00 0.00 53 1014.9
20260504015005 50 0.0 0.0 0.00 0.00 0.00 54 1014.9
20260504014519 50 0.0 0.0 0.00 0.00 0.00 55 1014.9
20260504014009 50 0.0 0.0 0.00 0.00 0.00 53 1014.9
20260504013505 50 0.0 0.0 0.00 0.00 0.00 55 1014.7
20260504013017 51 0.0 0.0 0.00 0.00 0.00 55 1014.8
20260504012505 51 0.0 0.0 0.00 0.00 0.00 54 1014.7
20260504012005 51 0.0 0.0 0.00 0.00 0.00 53 1014.7
20260504011510 51 0.0 0.0 0.00 0.00 0.00 53 1014.6
20260504011006 52 0.0 0.0 0.00 0.00 0.00 53 1014.5
20260504010505 52 0.0 0.0 0.00 0.00 0.00 51 1014.3
20260504010007 52 0.0 0.0 0.00 0.00 0.00 52 1014.2
20260504005507 52 0.0 0.0 0.00 0.00 0.00 51 1014.1
20260504005007 52 0.0 0.0 0.00 0.00 0.00 52 1014.0
20260504004521 52 0.0 0.0 0.00 0.00 0.00 52 1014.0
20260504004006 52 0.0 0.0 0.00 0.00 0.00 51 1014.1
20260504003508 52 0.0 0.0 0.00 0.00 0.00 50 1014.0
20260504003020 53 0.0 0.0 0.00 0.00 0.00 51 1013.8
20260504002505 53 0.0 0.0 0.00 0.00 0.00 50 1013.7
20260504002009 54 0.0 0.0 0.00 0.00 0.00 50 1013.7
20260504001522 54 0.0 0.0 0.00 0.00 0.00 48 1013.6
20260504001009 54 0.0 0.0 0.00 0.00 0.00 46 1013.5
20260504000508 54 0.0 0.0 0.00 0.00 0.00 46 1013.5
20260504000011 55 0.0 0.0 0.00 0.00 0.00 45 1013.5
20260503235504 55 0.0 0.0 0.00 0.00 0.00 45 1013.4
20260503235004 56 0.0 0.0 0.00 0.00 0.00 41 1013.4
20260503234514 56 0.0 0.0 0.00 0.00 0.00 42 1013.4
20260503234005 57 0.0 0.0 0.00 0.00 0.00 38 1013.3
20260503233509 57 0.0 0.0 0.00 0.00 0.00 38 1013.2
20260503233012 57 0.0 0.0 0.00 0.00 0.00 37 1013.2
20260503232509 57 0.0 0.0 0.00 0.00 0.00 37 1013.2
20260503232008 57 0.0 0.0 0.00 0.00 0.00 36 1013.3
20260503231541 58 0.0 0.0 0.00 0.00 0.00 37 1013.3
20260503231007 58 0.0 0.0 0.00 0.00 0.00 36 1013.2
20260503230508 58 0.0 0.0 0.00 0.00 0.00 37 1013.2
20260503230024 58 0.0 0.0 0.00 0.00 0.00 35 1013.2
20260503225505 58 0.0 0.0 0.00 0.00 0.00 34 1013.1
20260503225009 58 0.0 0.0 0.00 0.00 0.00 35 1013.1
20260503224504 59 0.0 0.0 0.00 0.00 0.00 34 1013.1
20260503224004 59 0.0 0.0 0.00 0.00 0.00 33 1013.0
20260503223503 59 0.0 0.0 0.00 0.00 0.00 33 1013.1
20260503223023 59 0.0 0.0 0.00 0.00 0.00 34 1013.0
20260503222504 59 0.0 0.0 0.00 0.00 0.00 32 1012.9
20260503222008 59 0.0 0.0 0.00 0.00 0.00 32 1012.9
20260503221519 59 0.0 0.0 0.00 0.00 0.00 32 1013.0
20260503221010 59 0.0 0.0 0.00 0.00 0.00 33 1013.0
20260503220506 59 0.0 0.0 0.00 0.00 0.00 32 1013.0
20260503220007 59 0.0 0.0 0.00 0.00 0.00 33 1012.9
20260503215505 59 0.0 0.0 0.00 0.00 0.00 32 1013.1
20260503215006 60 0.0 0.0 0.00 0.00 0.00 32 1012.9